EW4557 Weather Reports


time (UTC)temp
C
wind
direction
speed
KPH
gust
KPH
rain 1hr
cm
rain 24hr
cm
rain mn
cm
humidity
%
barometer
mb
20260507221555 22 0 8.0 17.7 0.00 0.30 0.03 24 1015.8
20260507220515 22 0 4.8 14.5 0.00 0.30 0.03 25 1016.0
20260507214555 22 0 4.8 16.1 0.00 0.30 0.03 25 1016.4
20260507213555 22 0 8.0 17.7 0.00 0.30 0.03 26 1016.7
20260507212635 21 0 6.4 16.1 0.00 0.30 0.03 26 1016.8
20260507210517 22 0 4.8 14.5 0.00 0.30 0.03 25 1017.6
20260507204517 21 0 8.0 20.9 0.00 0.30 0.03 27 1017.9
20260507203557 20 0 4.8 14.5 0.00 0.30 0.03 29 1018.1
20260507202557 20 0 4.8 12.9 0.00 0.30 0.03 28 1018.2
20260507201516 20 0 6.4 22.5 0.00 0.30 0.03 28 1018.4
20260507200516 20 0 6.4 16.1 0.00 0.30 0.03 33 1018.3
20260507195557 20 0 3.2 9.7 0.00 0.30 0.03 32 1018.8
20260507193637 18 0 4.8 14.5 0.00 0.30 0.03 36 1019.0
20260507192516 18 0 4.8 16.1 0.00 0.30 0.03 33 1018.8
20260507190516 17 0 8.0 19.3 0.00 0.30 0.03 41 1019.3
20260507185516 17 0 4.8 14.5 0.00 0.30 0.03 42 1019.5
20260507183516 17 0 6.4 14.5 0.00 0.30 0.03 47 1019.9
20260507182556 16 0 4.8 16.1 0.00 0.30 0.03 47 1020.2
20260507180558 16 0 9.7 24.1 0.00 0.30 0.03 52 1020.4
20260507175556 15 0 6.4 17.7 0.00 0.30 0.03 53 1020.5
20260507174516 15 0 9.7 19.3 0.00 0.30 0.03 55 1020.8
20260507173516 15 0 9.7 19.3 0.00 0.30 0.03 56 1020.9
20260507172556 14 0 11.3 20.9 0.00 0.30 0.03 58 1020.9
20260507170516 13 0 12.9 20.9 0.00 0.30 0.03 61 1021.2
20260507164556 12 0 12.9 24.1 0.00 0.30 0.03 65 1021.1
20260507163516 12 0 16.1 24.1 0.00 0.30 0.03 66 1021.2
20260507162516 12 0 8.0 20.9 0.00 0.30 0.03 71 1021.2
20260507161516 11 0 11.3 25.7 0.00 0.30 0.03 72 1021.2
20260507160556 11 0 9.7 20.9 0.00 0.30 0.03 75 1021.3
20260507155516 10 0 8.0 17.7 0.00 0.30 0.03 78 1021.1
20260507154516 10 0 4.8 12.9 0.00 0.30 0.03 83 1021.3
20260507151636 7 0 6.4 14.5 0.00 0.30 0.03 88 1021.3
20260507150556 7 0 4.8 12.9 0.00 0.30 0.03 91 1021.2
20260507145516 6 0 4.8 12.9 0.00 0.30 0.03 91 1021.3
20260507144516 6 0 4.8 9.7 0.00 0.30 0.03 91 1021.3
20260507143636 6 0 4.8 9.7 0.00 0.30 0.03 91 1021.1
20260507142516 6 0 6.4 14.5 0.00 0.30 0.03 91 1021.4
20260507141636 6 0 4.8 12.9 0.00 0.30 0.03 92 1021.4
20260507140636 5 0 6.4 12.9 0.00 0.30 0.03 92 1021.5
20260507135516 5 0 8.0 16.1 0.00 0.30 0.03 93 1021.5
20260507133516 5 0 4.8 14.5 0.00 0.30 0.03 93 1021.2
20260507132636 5 0 3.2 6.4 0.00 0.30 0.03 93 1021.0
20260507131516 5 0 1.6 4.8 0.00 0.30 0.03 94 1021.1
20260507130556 5 0 1.6 6.4 0.00 0.30 0.03 94 1021.0
20260507125515 4 0 1.6 8.0 0.00 0.30 0.03 94 1020.6
20260507124515 4 0 0.0 6.4 0.00 0.30 0.03 94 1020.7
20260507123515 3 0 0.0 4.8 0.00 0.30 0.03 94 1020.7
20260507121516 2 0 0.0 1.6 0.00 0.30 0.03 93 1020.5
20260507120555 2 0.0 0.0 0.00 0.30 0.03 93 1020.8
20260507114515 3 0 0.0 3.2 0.00 0.30 0.03 93 1021.6
20260507113555 3 0 0.0 3.2 0.00 0.30 0.03 93 1022.1
20260507112515 2 0 0.0 3.2 0.00 0.30 0.03 93 1022.4
20260507111556 2 0.0 1.6 0.00 0.30 0.03 94 1022.4
20260507110515 2 0 0.0 3.2 0.00 0.30 0.03 94 1022.5
20260507105555 1 0 0.0 3.2 0.00 0.30 0.03 93 1022.3
20260507103555 0 0.0 1.6 0.00 0.30 0.03 92 1022.7
20260507102635 0 0.0 0.0 0.00 0.30 0.03 92 1022.7
20260507101516 1 0.0 0.0 0.00 0.30 0.03 92 1022.6
20260507100515 0 0 0.0 4.8 0.00 0.30 0.03 91 1022.6
20260507095515 1 0.0 0.0 0.00 0.30 0.03 91 1022.6
20260507094555 1 0.0 0.0 0.00 0.30 0.03 91 1022.6
20260507093555 1 0.0 0.0 0.00 0.30 0.03 91 1022.5
20260507092515 1 0.0 0.0 0.00 0.30 0.03 91 1022.6
20260507091515 1 0.0 0.0 0.00 0.30 0.03 92 1022.8
20260507090515 1 0.0 0.0 0.00 0.30 0.03 91 1022.6
20260507085515 1 0.0 0.0 0.00 0.30 0.03 91 1022.4
20260507084635 1 0.0 0.0 0.00 0.30 0.03 91 1022.6
20260507083635 1 0.0 0.0 0.00 0.30 0.03 91 1022.7
20260507081555 1 0.0 0.0 0.00 0.30 0.03 91 1023.0
20260507080515 1 0.0 0.0 0.03 0.30 0.03 91 1023.1
20260507075555 1 0.0 0.0 0.03 0.30 0.03 91 1023.1
20260507074635 2 0.0 0.0 0.03 0.30 0.03 91 1023.2
20260507073515 2 0.0 0.0 0.03 0.30 0.03 90 1023.1
20260507072515 2 0.0 0.0 0.03 0.30 0.03 90 1023.1
20260507071635 2 0.0 0.0 0.03 0.30 0.03 90 1022.9
20260507070635 2 0.0 0.0 0.00 0.28 0.00 90 1023.1
20260507065555 2 0.0 0.0 0.00 0.28 0.00 90 1023.1
20260507064555 2 0.0 0.0 0.00 0.28 0.00 90 1022.8
20260507061516 3 0.0 0.0 0.00 0.28 0.00 90 1022.1
20260507060557 3 0.0 0.0 0.00 0.28 0.00 90 1022.4
20260507055516 3 0.0 0.0 0.00 0.28 0.28 90 1022.1
20260507054516 3 0.0 0.0 0.00 0.28 0.28 91 1022.0
20260507053556 3 0.0 0.0 0.00 0.28 0.28 91 1021.9
20260507052516 3 0.0 0.0 0.00 0.28 0.28 91 1021.7
20260507051516 3 0.0 0.0 0.00 0.28 0.28 91 1021.6
20260507050516 3 0.0 1.6 0.00 0.28 0.28 91 1021.6
20260507045556 3 0 1.6 6.4 0.05 0.28 0.28 91 1021.3
20260507042636 4 0 0.0 8.0 0.08 0.28 0.28 91 1021.1
20260507040636 4 0 3.2 8.0 0.10 0.28 0.28 91 1020.1
20260507034516 4 0 4.8 20.9 0.03 0.20 0.20 91 1020.6
20260507033555 4 0 9.7 19.3 0.05 0.20 0.20 91 1020.2
20260507032636 4 0 8.0 16.1 0.10 0.20 0.20 91 1020.2
20260507031556 4 0 9.7 17.7 0.08 0.18 0.18 90 1019.6
20260507030515 4 0 9.7 20.9 0.08 0.18 0.18 90 1019.4
20260507025516 4 0 11.3 22.5 0.08 0.18 0.18 90 1019.1
20260507024555 4 0 14.5 24.1 0.08 0.18 0.18 90 1018.8
20260507023555 4 0 12.9 27.4 0.05 0.15 0.15 89 1018.7
20260507022555 4 0 14.5 25.7 0.03 0.10 0.10 89 1018.3
20260507021515 4 0 11.3 19.3 0.05 0.10 0.10 88 1018.6
20260507020515 4 0 8.0 20.9 0.10 0.10 0.10 88 1018.4
20260507015635 4 0 14.5 25.7 0.10 0.10 0.10 87 1017.2
20260507014555 4 0 16.1 27.4 0.10 0.10 0.10 87 1017.3
20260507013515 4 0 17.7 24.1 0.10 0.10 0.10 87 1017.2
20260507012515 4 0 16.1 32.2 0.08 0.08 0.08 85 1017.2
20260507005635 5 0 14.5 35.4 0.00 0.00 0.00 82 1016.9
20260507004515 5 0 29.0 41.8 0.00 0.00 0.00 81 1016.6
20260507003635 5 0 25.7 38.6 0.00 0.00 0.00 80 1016.1
20260507002555 5 0 22.5 37.0 0.00 0.00 0.00 79 1015.7
20260507001515 6 0 24.1 38.6 0.00 0.00 0.00 77 1015.6
20260507000515 6 0 27.4 46.7 0.00 0.00 0.00 74 1015.5
20260506235635 8 0 30.6 43.5 0.00 0.00 0.00 75 1015.4
20260506234555 10 0 19.3 38.6 0.00 0.00 0.00 70 1015.5
20260506233555 11 0 29.0 43.5 0.00 0.00 0.00 62 1015.3
20260506232555 13 0 24.1 43.5 0.00 0.00 0.00 56 1015.3
20260506231515 13 0 20.9 33.8 0.00 0.00 0.00 55 1015.0
20260506230515 13 0 22.5 37.0 0.00 0.00 0.00 54 1014.9
20260506224555 15 0 16.1 35.4 0.00 0.00 0.00 50 1014.1
20260506223555 16 0 8.0 29.0 0.00 0.00 0.00 49 1014.0
20260506222635 16 0 16.1 29.0 0.00 0.03 0.00 49 1013.7